Weather History for Fairmont, MN

Change the Weather History Date:

Sunday, June 23, 2013

  Actual Average Record
Temperature  
Mean Temperature 74 °F -  
Max Temperature 82 °F 81 °F 93 °F (2005)
Min Temperature 66 °F 59 °F 47 °F (1972)
Cooling Degree Days 9    
Growing Degree Days 24 (Base 50)    
Moisture  
Dew Point 63 °F    
Average Humidity 68    
Maximum Humidity 88    
Minimum Humidity 51    
Precipitation  
Precipitation 0.54 in - - ()
Sea Level Pressure  
Sea Level Pressure 29.82 in    
Wind  
Wind Speed 13 mph (SW)    
Max Wind Speed 34 mph    
Max Gust Speed 47 mph    
Visibility 10 miles    
Events Thunderstorm    
Averages and records for this station are not official NWS values.
T = Trace of Precipitation, MM = Missing Value Source: NWS Daily Summary

Daily Weather History Graph

Daily Weather History Graph

Search for Another Location

Airport:

Trip Planner

Search our weather history database for the weather conditions in past years. The results will help you decide how hot, cold, wet, or windy it might be!

Date:

Astronomy

Jun. 23, 2013 Rise Set
Actual Time 5:36 AM CDT 9:03 PM CDT
Civil Twilight 5:00 AM CDT 9:39 PM CDT
Nautical Twilight 4:13 AM CDT 10:26 PM CDT
Astronomical Twilight 3:14 AM CDT 11:25 PM CDT
Moon 9:13 PM CDT (6/23) 5:57 AM CDT (6/23)
Length of Visible Light 16h 38m
Length of Day
15h 26m
Full, 100% of the Moon is Illuminated
Jun 23
Full
Jun 29
Last Quarter
Jul 8
New
Jul 15
First Quarter
Jul 22
Full

Hourly Weather History & Observations

Time (CDT) Temp. Heat Index Dew Point Humidity Pressure Visibility Wind Dir Wind Speed Gust Speed Precip Events Conditions
12:15 AM 73.4 °F - 66.2 °F 78% 29.79 in 10.0 mi ESE 13.8 mph - N/A   Clear
12:35 AM 73.4 °F - 66.2 °F 78% 29.79 in 10.0 mi ESE 12.7 mph - N/A   Clear
12:55 AM 75.2 °F - 66.2 °F 73% 29.78 in 10.0 mi ESE 13.8 mph - N/A   Clear
1:15 AM 73.4 °F - 66.2 °F 78% 29.79 in 10.0 mi SE 9.2 mph - N/A   Clear
1:35 AM 73.4 °F - 64.4 °F 73% 29.79 in 10.0 mi SE 11.5 mph - N/A   Clear
1:55 AM 73.4 °F - 64.4 °F 73% 29.79 in 10.0 mi SE 12.7 mph - N/A   Partly Cloudy
2:15 AM 73.4 °F - 66.2 °F 78% 29.79 in 10.0 mi SE 15.0 mph - N/A   Partly Cloudy
2:35 AM 73.4 °F - 66.2 °F 78% 29.78 in 10.0 mi SSE 11.5 mph - N/A   Mostly Cloudy
2:55 AM 75.2 °F - 66.2 °F 73% 29.76 in 10.0 mi SSE 15.0 mph - N/A   Mostly Cloudy
3:15 AM 75.2 °F - 66.2 °F 73% 29.76 in 10.0 mi SSE 18.4 mph - N/A   Mostly Cloudy
3:35 AM 75.2 °F - 66.2 °F 73% 29.75 in 10.0 mi SSE 18.4 mph - N/A   Mostly Cloudy
3:55 AM 75.2 °F - 66.2 °F 73% 29.71 in 10.0 mi SSE 20.7 mph 29.9 mph N/A   Scattered Clouds
4:15 AM 75.2 °F - 66.2 °F 73% 29.73 in 10.0 mi South 18.4 mph 27.6 mph N/A Thunderstorm Mostly Cloudy
4:35 AM 71.6 °F - 66.2 °F 83% 29.77 in 4.0 mi SSW 32.2 mph 47.2 mph 0.11 in Thunderstorm Thunderstorm
4:55 AM 69.8 °F - 66.2 °F 88% 29.75 in 5.0 mi South 34.5 mph 41.4 mph 0.49 in Thunderstorm Thunderstorm
5:15 AM 69.8 °F - 66.2 °F 88% 29.75 in 10.0 mi South 26.5 mph 34.5 mph 0.03 in Thunderstorm Overcast
5:35 AM 71.6 °F - 66.2 °F 83% 29.75 in 10.0 mi South 24.2 mph 33.4 mph 0.03 in Thunderstorm Mostly Cloudy
5:55 AM 73.4 °F - 66.2 °F 78% 29.77 in 10.0 mi SSW 21.9 mph 27.6 mph 0.03 in   Mostly Cloudy
6:15 AM 69.8 °F - 62.6 °F 78% 29.79 in 10.0 mi WSW 16.1 mph 25.3 mph 0.01 in   Overcast
6:35 AM 68.0 °F - 62.6 °F 83% 29.81 in 10.0 mi WSW 20.7 mph 25.3 mph 0.02 in   Overcast
6:55 AM 68.0 °F - 62.6 °F 83% 29.78 in 10.0 mi West 16.1 mph 21.9 mph 0.02 in   Overcast
7:15 AM 68.0 °F - 62.6 °F 83% 29.79 in 10.0 mi WSW 11.5 mph - N/A   Overcast
7:35 AM 68.0 °F - 62.6 °F 83% 29.79 in 10.0 mi SSW 10.4 mph - N/A   Overcast
7:55 AM 66.2 °F - 62.6 °F 88% 29.79 in 10.0 mi South 10.4 mph - N/A   Overcast
8:15 AM 66.2 °F - 62.6 °F 88% 29.78 in 10.0 mi South 13.8 mph - N/A   Scattered Clouds
8:35 AM 66.2 °F - 62.6 °F 88% 29.70 in 10.0 mi ESE 17.3 mph - N/A   Mostly Cloudy
8:55 AM 68.0 °F - 60.8 °F 78% 29.75 in 10.0 mi SE 5.8 mph - N/A   Scattered Clouds
9:15 AM 69.8 °F - 60.8 °F 73% 29.78 in 10.0 mi South 11.5 mph - N/A   Clear
9:35 AM 69.8 °F - 62.6 °F 78% 29.80 in 4.0 mi West 13.8 mph 19.6 mph N/A   Clear
9:55 AM 71.6 °F - 60.8 °F 69% 29.80 in 10.0 mi SW 6.9 mph - N/A   Clear
10:15 AM 71.6 °F - 62.6 °F 73% 29.80 in 10.0 mi South 10.4 mph - N/A   Clear
10:35 AM 73.4 °F - 60.8 °F 65% 29.80 in 10.0 mi SW 10.4 mph 17.3 mph N/A   Clear
10:55 AM 75.2 °F - 60.8 °F 61% 29.80 in 10.0 mi SW 11.5 mph - N/A   Clear
11:15 AM 75.2 °F - 60.8 °F 61% 29.82 in 10.0 mi WSW 13.8 mph 19.6 mph N/A   Clear
11:35 AM 75.2 °F - 60.8 °F 61% 29.83 in 10.0 mi WSW 12.7 mph - N/A   Clear
11:55 AM 77.0 °F - 60.8 °F 57% 29.83 in 10.0 mi WSW 13.8 mph 19.6 mph N/A   Clear
12:15 PM 77.0 °F - 60.8 °F 57% 29.84 in 10.0 mi West 13.8 mph - N/A   Clear
12:35 PM 78.8 °F - 60.8 °F 54% 29.85 in 10.0 mi WSW 9.2 mph - N/A   Clear
12:55 PM 78.8 °F - 60.8 °F 54% 29.86 in 10.0 mi WSW 10.4 mph - N/A   Clear
1:15 PM 78.8 °F - 60.8 °F 54% 29.86 in 10.0 mi SW 11.5 mph - N/A   Clear
1:35 PM 78.8 °F - 60.8 °F 54% 29.86 in 10.0 mi SW 12.7 mph - N/A   Clear
1:55 PM 78.8 °F - 60.8 °F 54% 29.85 in 10.0 mi WSW 13.8 mph - N/A   Clear
2:15 PM 80.6 °F 81.8 °F 62.6 °F 54% 29.85 in 10.0 mi WSW 10.4 mph - N/A   Clear
2:35 PM 80.6 °F 81.8 °F 62.6 °F 54% 29.85 in 10.0 mi SW 8.1 mph - N/A   Clear
2:55 PM 80.6 °F 81.8 °F 62.6 °F 54% 29.85 in 10.0 mi WSW 11.5 mph - N/A   Scattered Clouds
3:15 PM 80.6 °F 81.8 °F 62.6 °F 54% 29.86 in 10.0 mi WSW 11.5 mph - N/A   Scattered Clouds
3:35 PM 80.6 °F 81.8 °F 62.6 °F 54% 29.85 in 10.0 mi West 8.1 mph 18.4 mph N/A   Scattered Clouds
3:55 PM 80.6 °F 81.8 °F 62.6 °F 54% 29.84 in 10.0 mi West 12.7 mph - N/A   Partly Cloudy
4:15 PM 82.4 °F 83.4 °F 62.6 °F 51% 29.85 in 10.0 mi WSW 11.5 mph 17.3 mph N/A   Clear
4:35 PM 80.6 °F 81.8 °F 62.6 °F 54% 29.84 in 10.0 mi WSW 10.4 mph - N/A   Clear
4:55 PM 80.6 °F 81.8 °F 62.6 °F 54% 29.85 in 10.0 mi West 11.5 mph - N/A   Clear
5:15 PM 82.4 °F 83.4 °F 62.6 °F 51% 29.85 in 10.0 mi West 11.5 mph 16.1 mph N/A   Clear
5:35 PM 82.4 °F 83.4 °F 62.6 °F 51% 29.86 in 10.0 mi West 11.5 mph - N/A   Partly Cloudy
5:55 PM 82.4 °F 83.4 °F 62.6 °F 51% 29.86 in 10.0 mi West 8.1 mph - N/A   Clear
6:15 PM 82.4 °F 83.4 °F 62.6 °F 51% 29.86 in 10.0 mi WSW 8.1 mph - N/A   Clear
6:35 PM 82.4 °F 83.4 °F 62.6 °F 51% 29.86 in 10.0 mi West 9.2 mph - N/A   Partly Cloudy
6:55 PM 80.6 °F 81.8 °F 62.6 °F 54% 29.87 in 10.0 mi WSW 8.1 mph - N/A   Clear
7:15 PM 80.6 °F 81.8 °F 62.6 °F 54% 29.87 in 10.0 mi West 8.1 mph - N/A   Clear
7:35 PM 80.6 °F 81.8 °F 62.6 °F 54% 29.87 in 10.0 mi West 8.1 mph - N/A   Clear
7:55 PM 80.6 °F 81.8 °F 62.6 °F 54% 29.87 in 10.0 mi West 8.1 mph - N/A   Clear
8:15 PM 78.8 °F - 64.4 °F 61% 29.87 in 10.0 mi West 4.6 mph - N/A   Clear
8:35 PM 78.8 °F - 64.4 °F 61% 29.88 in 10.0 mi WSW 3.5 mph - N/A   Partly Cloudy
8:55 PM 77.0 °F - 64.4 °F 65% 29.88 in 10.0 mi Calm Calm - N/A   Mostly Cloudy
9:15 PM 77.0 °F - 62.6 °F 61% 29.89 in 10.0 mi Calm Calm - N/A   Partly Cloudy
9:35 PM 75.2 °F - 64.4 °F 69% 29.89 in 10.0 mi Calm Calm - N/A   Clear
9:55 PM 73.4 °F - 66.2 °F 78% 29.90 in 3.0 mi Calm Calm - N/A   Clear
10:15 PM 71.6 °F - 66.2 °F 83% 29.90 in 10.0 mi Calm Calm - N/A   Clear
10:35 PM 71.6 °F - 64.4 °F 78% 29.91 in 10.0 mi SSE 3.5 mph - N/A   Clear
10:55 PM 71.6 °F - 64.4 °F 78% 29.91 in 10.0 mi South 4.6 mph - N/A   Clear
11:15 PM 69.8 °F - 64.4 °F 83% 29.92 in 10.0 mi Calm Calm - N/A   Clear
11:35 PM 69.8 °F - 64.4 °F 83% 29.92 in 6.0 mi SSE 4.6 mph - N/A   Clear
11:55 PM 69.8 °F - 64.4 °F 83% 29.93 in 10.0 mi South 6.9 mph - N/A   Clear